Regional Weather Roundup
Issued by NWS

Home | Current Version | Previous Version | Graphics & Text | Print | Product List | Glossary Off
Versions: 1 2 3 4 5 6 7 8 9 10 11 12 13 14 15 16 17 18 19 20 21 22 23 24 25 26 27 28 29 30 31 32 33 34 35 36 37 38 39 40 41 42 43 44 45 46 47 48 49 50

000
ASUS43 KFSD 291410
RWRSD

WEATHER ROUNDUP FOR SOUTH DAKOTA
NATIONAL WEATHER SERVICE SIOUX FALLS SD
900 AM CDT SUN MAY 29 2016

NOTE: "FAIR" INDICATES FEW OR NO CLOUDS BELOW 12,000 FEET WITH NO
SIGNIFICANT WEATHER AND/OR OBSTRUCTIONS TO VISIBILITY.


SDZ001>005-009-010-012>017-291500-
NORTHWEST AND NORTH CENTRAL SOUTH DAKOTA

CITY           SKY/WX    TMP DP  RH WIND       PRES   REMARKS
BUFFALO          N/A     60  46  59 W3        30.01S
FAITH            N/A     61  53  75 CALM      30.06S
MOBRIDGE       SUNNY     60  52  74 NW3       30.03R
$$

SDZ012>016-024>037-041>051-057-063-072>074-291500-
SOUTHWEST AND SOUTH CENTRAL SOUTH DAKOTA

CITY           SKY/WX    TMP DP  RH WIND       PRES   REMARKS
RAPID CTY ARPT CLOUDY    59  48  67 NW6       30.10R
PIERRE         SUNNY     60  54  80 W6        30.06R
CUSTER         SUNNY     54  46  74 N3        30.17R
ELLSWORTH AFB  CLOUDY    58  51  79 NW7       30.11R
PHILIP         MOSUNNY   60  54  80 CALM      30.08R
PINE RIDGE     MOSUNNY   53  47  79 CALM      30.11R
WINNER         FAIR      62  52  69 W5        30.09R
$$

SDZ004>011-016>023-039-040-291500-
NORTHEAST SOUTH DAKOTA

CITY           SKY/WX    TMP DP  RH WIND       PRES   REMARKS
ABERDEEN       SUNNY     64  55  72 W8        30.01R
WATERTOWN      SUNNY     64  54  69 NW12      30.00R
BROOKINGS      SUNNY     63  57  81 NW10      30.02R
SISSETON         N/A     66  57  72 N10       29.95R
$$

SDZ017-020-022-023-036>040-048>070-291500-
SOUTHEAST SOUTH DAKOTA

CITY           SKY/WX    TMP DP  RH WIND       PRES   REMARKS
SIOUX FALLS    PTSUNNY   66  60  81 W8        30.03R
HURON          SUNNY     64  57  78 NW12      30.03R
CHAMBERLAIN    SUNNY     62  58  89 W3        30.07S
MITCHELL       SUNNY     65  59  81 NW7       30.05R
YANKTON        SUNNY     66  57  72 W10       30.04R
$$

ABBREVIATIONS USED IN REMARKS
   TC - TEMPERATURE IN CELSIUS
  WCI - WIND CHILL INDEX
   HX - HEAT INDEX
  VSB - VISIBILITY




USA.gov is the U.S. government's official web portal to all federal, state and local government web resources and services.